TimeEDT,TemperatureF,Dew PointF,Humidity,Sea Level PressureIn,VisibilityMPH,Wind Direction,Wind SpeedMPH,Gust SpeedMPH,PrecipitationIn,Events,Conditions,WindDirDegrees,DateUTC
1:53 AM,62.1,46.9,58,29.99,10.0,South,8.1,-,N/A,,Clear,180,2012-10-26 05:53:00
2:53 AM,60.1,46.0,60,29.99,10.0,South,5.8,-,N/A,,Clear,180,2012-10-26 06:53:00
3:53 AM,59.0,46.0,62,29.99,10.0,South,6.9,-,N/A,,Clear,180,2012-10-26 07:53:00
4:53 AM,57.9,46.0,65,30.01,10.0,South,3.5,-,N/A,,Clear,170,2012-10-26 08:53:00
5:53 AM,55.9,46.0,69,30.02,10.0,SSE,5.8,-,N/A,,Clear,160,2012-10-26 09:53:00
6:53 AM,57.0,46.0,67,30.03,10.0,SSE,3.5,-,N/A,,Clear,150,2012-10-26 10:53:00
7:53 AM,54.0,46.0,75,30.05,10.0,Calm,Calm,-,N/A,,Mostly Cloudy,0,2012-10-26 11:53:00
8:53 AM,57.9,48.0,70,30.07,10.0,Calm,Calm,-,N/A,,Clear,0,2012-10-26 12:53:00
9:53 AM,62.1,50.0,65,30.09,10.0,SSW,4.6,-,N/A,,Clear,210,2012-10-26 13:53:00
10:53 AM,64.9,51.1,61,30.09,10.0,Variable,3.5,-,N/A,,Clear,0,2012-10-26 14:53:00
11:53 AM,66.0,52.0,60,30.10,10.0,NW,5.8,-,N/A,,Partly Cloudy,320,2012-10-26 15:53:00
12:53 PM,68.0,54.0,61,30.08,10.0,Calm,Calm,-,N/A,,Partly Cloudy,0,2012-10-26 16:53:00
1:53 PM,70.0,54.0,57,30.05,10.0,Variable,3.5,-,N/A,,Clear,0,2012-10-26 17:53:00
2:53 PM,69.1,55.9,63,30.02,10.0,North,5.8,-,N/A,,Mostly Cloudy,350,2012-10-26 18:53:00
3:53 PM,64.9,53.1,65,30.04,10.0,NNW,13.8,-,N/A,,Clear,330,2012-10-26 19:53:00
4:53 PM,57.9,48.9,72,30.06,10.0,NNW,16.1,24.2,N/A,,Scattered Clouds,330,2012-10-26 20:53:00
5:30 PM,55.4,48.2,77,30.07,10.0,North,12.7,20.7,N/A,,Overcast,350,2012-10-26 21:30:00
5:50 PM,53.6,48.2,82,30.08,10.0,NNW,13.8,20.7,N/A,,Overcast,340,2012-10-26 21:50:00
5:53 PM,53.1,48.0,83,30.08,10.0,NNW,11.5,20.7,N/A,,Overcast,340,2012-10-26 21:53:00
6:53 PM,53.1,46.9,80,30.09,10.0,North,12.7,17.3,N/A,,Overcast,10,2012-10-26 22:53:00
7:53 PM,52.0,46.9,83,30.09,10.0,North,9.2,-,N/A,,Overcast,10,2012-10-26 23:53:00
9:50 PM,51.8,46.4,82,30.08,10.0,NNE,11.5,19.6,N/A,,Overcast,20,2012-10-27 01:50:00
9:53 PM,52.0,46.0,80,30.08,10.0,North,11.5,19.6,N/A,,Overcast,10,2012-10-27 01:53:00
10:53 PM,52.0,46.0,80,30.06,10.0,NNE,12.7,19.6,N/A,,Overcast,30,2012-10-27 02:53:00
11:53 PM,51.1,46.0,83,30.04,10.0,NNE,10.4,-,0.00,,Overcast,30,2012-10-27 03:53:00